Terug naar catalogus

KUIPER-00093

ActiefCommunicatieLEO
NORAD 64838·PAYLOAD·🇺🇸 United States

Gelanceerd Jul 16, 2025 vanaf Cape Canaveral Space Force Station

Loading…

Volgende Passages (komende 24 uur)

TLE

VersSource: CelesTrak SupGP

Epoch: Sep 14, 2026, 20:35 UTC

1 64838C 25151Y   26257.85806713 -.00022652  00000+0 -29657-2 0  2579
2 64838  51.8987 176.5740 0000946  97.7319 116.3704 14.79946573    12

Volg KUIPER-00093 in realtime met AllMySat

Download on the App Store